Location: Newark
(46.9000°N, 28.3500°E)
Time: 06:31:33
(UTC+00:00)

Vanguard 1 Rocket - Pass Details

Date: 26 August 2019
Orbit: 652 x 4225 km, 34.3° (Epoch: 15 September)

Event Time Altitude Azimuth Distance (km) Brightness Sun altitude
Rises 05:24:56 0° 251° (WSW) 3,791 10.1 20.7°
Reaches altitude 10° 05:30:09 10° 216° (SW) 3,471 10.2 21.5°
Maximum altitude 05:32:15 11° 201° (SSW) 3,661 10.4 21.9°
Drops below altitude 10° 05:34:39 10° 188° (S) 4,048 10.8 22.3°
Sets 05:43:15 0° 159° (SSE) 6,120 12.0 23.7°
